Flag for Germany Weather past 2 weeks in Sundern (Sauerland), North Rhine-Westphalia, Germany

Now
64 °F

Scattered clouds.


Feels Like: 64 °F
Forecast: 49 / 61 °F
Wind: 13 mph from Southwest

Location: Dortmund / Wickede

Current Time: Aug 22, 2014 at 2:09:28 PM

Latest Report: Aug 22, 2014 at 1:20 PM


Visibility: N/A

Pressure: 29.89 "Hg

Humidity: 56%

Dew point: 48 °F

Location of Sundern (Sauerland)Location

Historic Weather in Sundern (Sauerland) — Graph

°F

Sundern (Sauerland) temperature yesterday

Maximum temperature yesterday: 63 °F (at 12:50 PM)
Minimum temperature yesterday: 46 °F (at 5:20 AM)
Average temperature yesterday: 57 °F

Past Weeks' High & Low Weather Summary

 TemperatureHumidityPressure
High79 °F (Aug 8, 1:20 PM)94% (Aug 15, 7:20 AM)30.09 "Hg (Aug 15, 7:20 AM)
Low46 °F (Aug 21, 5:20 AM)42% (Aug 8, 3:20 PM)29.59 "Hg (Aug 10, 7:20 PM)
Average61 °F69%29.87 "Hg
* Reported Aug 7 12:20 PM — Aug 22 12:50 PM, Sundern (Sauerland), Weather by CustomWeather, © 2014

Note: Actual official high and low records may vary slightly from our data, if they occured in-between our weather recording intervals... More about our weather records

Advertising

Sundern (Sauerland) weather history for previous 24 hours

 ConditionsComfort  
Time TempWeatherWind HumidityBarometerVisibility
12:50 PM
Aug 22
64 °FScattered clouds.18 mph49%29.89 "HgN/A
12:20 PM64 °FScattered clouds.15 mph52%29.89 "HgN/A
11:50 AM63 °FMild.15 mph59%29.89 "HgN/A
11:20 AM63 °FSunny.14 mph56%29.89 "Hg10 mi
10:50 AM61 °FSunny.12 mph59%29.89 "Hg10 mi
10:20 AM59 °FSunny.12 mph63%29.89 "Hg10 mi
9:50 AM59 °FSunny.10 mph63%29.89 "Hg10 mi
9:20 AM57 °FSunny.10 mph67%29.89 "Hg10 mi
8:50 AM57 °FSunny.12 mph67%29.89 "Hg10 mi
8:20 AM55 °FSunny.12 mph72%29.92 "Hg10 mi
7:50 AM54 °FSunny.12 mph72%29.92 "Hg10 mi
7:20 AM52 °FClear.10 mph77%29.92 "Hg10 mi
6:50 AM52 °FClear.9 mph77%29.92 "Hg10 mi
6:20 AM52 °FClear.10 mph77%29.92 "Hg10 mi
5:50 AM52 °FClear.9 mph77%29.92 "Hg10 mi
5:20 AM52 °FClear.9 mph77%29.92 "Hg10 mi
10:20 PM
Aug 21
55 °FClear.12 mph72%29.98 "Hg10 mi
9:50 PM57 °FLight rain. Passing clouds.15 mph67%29.98 "HgN/A
9:20 PM57 °FSunny.7 mph67%29.98 "Hg10 mi
8:50 PM55 °FSunny.6 mph67%29.98 "Hg10 mi
8:20 PM59 °FSunny.6 mph59%29.98 "Hg10 mi
7:50 PM59 °FSunny.8 mph55%29.98 "Hg10 mi
7:20 PM61 °FSunny.8 mph48%29.98 "Hg10 mi
6:50 PM63 °FSunny.10 mph52%29.98 "Hg10 mi
6:20 PM63 °FSunny.12 mph49%29.98 "Hg10 mi
5:50 PM61 °FPassing clouds.13 mph52%29.98 "HgN/A
5:20 PM63 °FSunny.12 mph56%29.98 "Hg10 mi
4:50 PM63 °FSunny.10 mph52%30.01 "Hg10 mi
4:20 PM63 °FSunny.12 mph52%30.01 "Hg10 mi
3:50 PM61 °FPassing clouds.8 mph52%30.01 "HgN/A
3:20 PM63 °FSunny.9 mph52%30.01 "Hg10 mi
2:50 PM63 °FSunny.12 mph52%30.01 "Hg10 mi
2:20 PM63 °FPassing clouds.14 mph52%30.01 "HgN/A
Weather by CustomWeather, © 2014

See weather overviewHow to use our weather pages